Location: Unspecified
(0.0000°N, 0.0000°E)
Time: 18:12:17
(UTC+00:00)

CZ-4 DEB - Pass Details

Date: 19 June 2024
Orbit: 785 x 976 km, 99.1° (Epoch: 15 July)

Event Time Altitude Azimuth Distance (km) Brightness Sun altitude
Exits shadow 19:26:58 32° 102° (ESE) 1,568 ? -19.5°
Maximum altitude 19:28:16 36° 76° (ENE) 1,480 ? -19.8°
Drops below altitude 10° 19:33:45 10° 12° (NNE) 2,708 ? -21.0°
Sets 19:36:25 0° 4° (N) 3,659 ? -21.6°
